Orbital Elements at Epoch 2459000.5 (2020-May-31.0) TDB
Reference: JPL 12 (heliocentric ecliptic J2000)
Element | Value | Uncertainty (1-sigma) | Units |
e | .1594184057936177 | 1.1514e-07 | |
a | 3.091272908649464 | 3.5742e-08 | au |
q | 2.598467109679567 | 3.3472e-07 | au |
i | 16.95541673418856 | 8.5993e-06 | deg |
node | 194.2238335561881 | 2.0376e-05 | deg |
peri | 169.1308018388338 | 3.011e-05 | deg |
M | 73.08561410859143 | 2.3879e-05 | deg |
tp | 2458597.473272331813 (2019-Apr-23.97327233) | 0.00012892 | TDB |
period | 1985.200832341253 5.44 | 3.443e-05 9.426e-08 | d yr |
n | .181341854252314 | 3.1451e-09 | deg/d |
Q | 3.584078707619361 | 4.144e-08 | au |
|
| | Orbit Determination Parameters
Additional Information
|